Skip Page Navigation
NASA JPL Caltech
NASA Logo - Jet Propulsion Laboratory + View the NASA Portal
+ Center for Near-Earth Object Studies
JPL Home Earth Solar System Stars & Galaxies Technology
JPL Solar System Dynamics
BODIES ORBITS EPHEMERIDES TOOLS PHYSICAL DATA DISCOVERY FAQ SITE MAP
IMPORTANT: The SSD Announcement email list is now available. Major changes are coming in the near future, including possible hostname and/or URL changes. To be notified of such changes, subscribe to this email list.

Please visit this page for more details.


JPL Small-Body Database Browser
Search: [ help ]  
3895 Earhart (1987 DE)
Classification: Main-belt Asteroid          SPK-ID: 2003895
Ephemeris | Orbit Diagram | Orbital Elements | Mission Design | Physical Parameters | Discovery Circumstances ]

[ show orbit diagram ]
Orbital Elements at Epoch 2458600.5 (2019-Apr-27.0) TDB
Reference: JPL 28 (heliocentric ecliptic J2000)
 Element Value Uncertainty (1-sigma)   Units 
e .180513383763496 4.956e-08  
a 2.351865575799873 9.4222e-09 au
q 1.927322362555355 1.1827e-07 au
i 24.34226673888661 5.392e-06 deg
node 150.8064044059313 1.0879e-05 deg
peri 8.68170061551489 1.6338e-05 deg
M 324.237305421651 1.22e-05 deg
tp 2458731.371446595020
(2019-Sep-04.87144660)
4.4835e-05 TDB
period 1317.398516238485
3.61
7.9168e-06
2.168e-08
d
yr
n .2732658307737384 1.6422e-09 deg/d
Q 2.776408789044391 1.1123e-08 au
  Orbit Determination Parameters
   # obs. used (total)      2116  
   data-arc span      23422 days (64.13 yr)  
   first obs. used      1955-03-27  
   last obs. used      2019-05-12  
   planetary ephem.      DE431  
   SB-pert. ephem.      SB431-N16  
   condition code      0  
   norm. resid. RMS      .39399  
   source      ORB  
   producer      Otto Matic  
   solution date      2019-May-30 00:01:03  

Additional Information
 Earth MOID = .939894 au 
 Jupiter MOID = 2.22405 au 
 T_jup = 3.417 
[ show covariance matrix ]

Ephemeris | Orbit Diagram | Orbital Elements | Mission Design | Physical Parameters | Discovery Circumstances ]

Physical Parameter Table
Parameter Symbol Value Units Sigma Reference Notes
absolute magnitude H 12.0   n/a MPO384788  
diameter diameter 10.384 km 0.086 urn:nasa:pds:neowise_diameters_albedos::2.0[mainbelt] (http://adsabs.harvard.edu/abs/2014ApJ...791..121M)  
rotation period rot_per 3.5645 h n/a LCDB (Rev. 2019-January); Warner et al., 2009 Published Reference List:
[Behrend, R. (2009) Observatoire de Geneve web site, http://obswww.unige.ch/~behrend/page_cou.html]
[Warner, B.D. (2009) Minor Planet Bull. 36, 172-176.]
[Aznar Macias, A.; Carreno Garcerain, A.; Arce Masego, E.; Brines Rodriques, P.; et al. (2016) Minor Planet Bull. 43, 257-263.]
[Behrend, R. (2016) Observatoire de Geneve web site, http://obswww.unige.ch/~behrend/page_cou.html]
[Skiff, B.A. (2016) Posting on CALL web site. http://www.minorplanet.info/call.html]
geometric albedo albedo 0.281   0.038 urn:nasa:pds:neowise_diameters_albedos::2.0[mainbelt] (http://adsabs.harvard.edu/abs/2012ApJ...759L...8M)  

3895 Earhart (1987 DE)          Discovered 1987-Feb-23 by Shoemaker, C. at Palomar
Reference: DISCOVERY.DBLast Updated: 2003-08-29

Alternate Designations
 1987 DE = 1969 EB = 1980 GS = 1981 PO 
Ephemeris | Orbit Diagram | Orbital Elements | Mission Design | Physical Parameters | Discovery Circumstances ]
ABOUT SSD CREDITS/AWARDS PRIVACY/COPYRIGHT GLOSSARY LINKS
FirstGov 2019-Dec-08 05:40 UT
(server date/time)  
NASA Home Page
Site Manager:   Ryan S. Park
Webmaster  Alan B. Chamberlin